Location: Makanda
(37.6176°N, 89.2090°W)
Time: 06:14:52
(UTC+00:00)

OAO 2 Rocket - Pass Details

Date: 23 September 2019
Orbit: 676 x 746 km, 35.0° (Epoch: 15 October)

Event Time Altitude Azimuth Distance (km) Brightness Sun altitude
Exits shadow 10:31:54 25° 256° (WSW) 1,346 4.2 -15.3°
Maximum altitude 10:34:40 66° 181° (S) 737 3.3 -14.7°
Drops below altitude 10° 10:39:31 10° 100° (E) 2,100 7.0 -13.8°
Sets 10:41:54 0° 97° (E) 3,016 8.1 -13.3°
